Location: Cambroso
(45.2833°N, 12.0850°E)
Time: 16:42:58
(UTC+00:00)

ATLAS 5 CENTAUR R/B - Pass Details

Date: 21 January 2021
Orbit: 511 x 1147 km, 63.3° (Epoch: 16 February)

Event Time Altitude Azimuth Distance (km) Brightness Sun altitude
Rises 16:35:48 0° 230° (SW) 2,637 6.5 -6.0°
Reaches altitude 10° 16:37:55 10° 235° (SW) 1,786 5.5 -6.3°
Maximum altitude 16:41:47 54° 313° (NW) 706 2.1 -7.0°
Drops below altitude 10° 16:46:13 10° 31° (NNE) 2,033 3.7 -7.7°
Enters shadow 16:47:32 - 34° (NE) 2,560 4.2 -7.9°
